Location: Tamazert
(32.6352°N, 5.2072°W)
Time: 05:31:15
(UTC+00:00)

Vanguard 2 - Pass Details

Date: 06 October 2022
Orbit: 553 x 2933 km, 32.9° (Epoch: 04 December)

Event Time Altitude Azimuth Distance (km) Brightness Sun altitude
Rises 09:27:41 0° 195° (SSW) 3,433 11.1 36.2°
Reaches altitude 10° 09:30:42 10° 176° (S) 2,793 11.0 36.7°
Maximum altitude 09:35:20 19° 133° (SE) 2,661 12.0 37.5°
Drops below altitude 10° 09:41:32 10° 93° (E) 3,923 12.0 38.5°
Sets 09:46:53 0° 79° (E) 5,429 12.3 39.3°
